Location: Caltech
(34.1382°N, 118.1253°W)
Time: 13:30:26
(UTC-08:00)

Iridium 72 - Visible Passes

Search period start: 30 January 2015 00:00
Search period end: 09 February 2015 00:00
Orbit: 776 x 779 km, 86.4° (Epoch: 29 January)

Date Brightness Start Highest point End Pass type
(mag) Time Alt. Az. Time Alt. Az. Time Alt. Az.
30 Jan 7.0 05:55:01 10° SSE 05:59:52 42° E 06:04:46 10° NNE visible
30 Jan 5.7 18:09:03 10° N 18:14:17 81° W 18:19:29 10° S visible
31 Jan 8.1 05:22:41 10° SE 05:26:30 22° E 05:30:29 10° NNE visible
31 Jan 8.5 19:18:12 10° NW 19:21:04 14° W 19:23:37 10° WSW visible
01 Feb 8.8 04:52:07 10° E 04:53:12 11° E 04:54:40 10° ENE visible
01 Feb 7.7 18:43:19 10° NNW 18:47:44 28° W 18:52:02 10° SW visible
02 Feb 6.1 05:54:47 10° S 05:59:54 63° E 06:05:04 10° N visible
02 Feb 6.4 18:09:16 10° NNW 18:14:20 54° W 18:19:23 10° SSW visible
03 Feb 7.4 05:21:58 10° SSE 05:26:29 32° E 05:31:07 10° NNE visible
04 Feb 8.4 04:50:03 10° ESE 04:53:09 17° E 04:56:31 10° NE visible
04 Feb 8.4 18:44:04 10° NW 18:47:43 19° W 18:51:10 10° SW visible
05 Feb 5.5 05:54:46 10° S 05:59:59 87° W 06:05:14 10° N visible
05 Feb 7.3 18:09:37 10° NNW 18:14:22 36° W 18:19:03 10° SSW visible
06 Feb 6.6 05:21:34 10° SSE 05:26:32 48° E 05:31:32 10° NNE visible
07 Feb 7.8 04:49:02 10° SE 04:53:08 25° E 04:57:23 10° NNE visible
07 Feb 8.7 18:45:27 10° NW 18:47:41 12° W 18:49:35 10° WSW visible
08 Feb 8.6 04:17:47 10° ESE 04:19:49 13° E 04:22:12 10° NE visible
08 Feb 5.6 05:54:58 10° SSW 06:00:05 58° W 06:05:14 10° N visible
08 Feb 8.1 18:10:10 10° NNW 18:14:22 24° W 18:18:26 10° SW visible
